Location: SE Lincoln, NE
(40.7805°N, 96.6275°W)
Time: 07:37:25
(UTC-05:00)

COSMOS 2406 - Pass Details

Date: 15 May 2021
Orbit: 844 x 862 km, 71.0° (Epoch: 20 June)

Event Time Altitude Azimuth Distance (km) Brightness Sun altitude
Rises 21:02:01 0° 344° (NNW) 3,412 7.2 -4.9°
Reaches altitude 10° 21:04:43 10° 353° (N) 2,474 6.2 -5.4°
Maximum altitude 21:09:50 34° 58° (ENE) 1,373 4.1 -6.2°
Drops below altitude 10° 21:14:56 10° 122° (ESE) 2,469 4.9 -7.0°
Enters shadow 21:15:20 - 124° (SE) 2,601 5.0 -7.1°
